DW5595 Weather Reports


time (UTC)temp
C
wind
direction
speed
KPH
gust
KPH
rain 1hr
cm
rain 24hr
cm
rain mn
cm
humidity
%
barometer
mb
20260510180013 26 138 4.8 8.0 0.00 0.00 0.00 30 1015.7
20260510174511 26 138 4.8 12.9 0.00 0.00 0.00 32 1015.8
20260510173006 26 228 0.0 6.4 0.00 0.00 0.00 27 1015.9
20260510171524 26 157 0.0 12.9 0.00 0.00 0.00 29 1016.1
20260510170020 26 141 1.6 3.2 0.00 0.00 0.00 33 1016.4
20260510164515 25 131 1.6 6.4 0.00 0.00 0.00 34 1016.4
20260510163016 25 5 0.0 3.2 0.00 0.00 0.00 32 1016.5
20260510161529 24 302 0.0 6.4 0.00 0.00 0.00 28 1016.6
20260510160007 23 14 3.2 6.4 0.00 0.00 0.00 38 1016.6
20260510154509 23 18 3.2 8.0 0.00 0.00 0.00 42 1016.6
20260510153022 23 303 3.2 6.4 0.00 0.00 0.00 42 1016.7
20260510151522 23 352 6.4 11.3 0.00 0.00 0.00 44 1016.8
20260510150020 22 188 0.0 3.2 0.00 0.00 0.00 55 1016.7
20260510144523 21 173 1.6 4.8 0.00 0.00 0.00 58 1016.6
20260510143024 21 9 1.6 3.2 0.00 0.00 0.00 60 1016.6
20260510141509 21 339 0.0 8.0 0.00 0.00 0.00 60 1016.8
20260510140008 20 331 3.2 6.4 0.00 0.00 0.00 64 1016.7
20260510134524 20 307 1.6 8.0 0.00 0.00 0.00 68 1016.7
20260510133022 19 269 1.6 8.0 0.00 0.00 0.00 69 1016.5
20260510131520 17 340 3.2 8.0 0.00 0.00 0.00 81 1016.5
20260510130016 15 96 0.0 1.6 0.00 0.00 0.00 97 1016.3
20260510123014 12 176 0.0 0.0 0.00 0.00 0.00 97 1016.3
20260510121506 12 176 0.0 0.0 0.00 0.00 0.00 96 1016.0
20260510120014 11 176 0.0 0.0 0.00 0.00 0.00 96 1015.7
20260510114504 10 176 0.0 0.0 0.00 0.00 0.00 96 1015.7
20260510113019 10 178 0.0 0.0 0.00 0.00 0.00 96 1015.4
20260510111521 10 178 0.0 0.0 0.00 0.00 0.00 95 1015.2
20260510110032 10 178 0.0 0.0 0.00 0.00 0.00 95 1015.1
20260510104517 10 178 0.0 0.0 0.00 0.00 0.00 95 1014.9
20260510103019 10 178 0.0 0.0 0.00 0.00 0.00 95 1014.5
20260510101510 10 178 0.0 0.0 0.00 0.00 0.00 95 1014.2
20260510100025 10 178 0.0 0.0 0.00 0.00 0.00 95 1014.0
20260510094522 11 178 0.0 0.0 0.00 0.00 0.00 95 1013.8
20260510091519 11 245 0.0 0.0 0.00 0.00 0.00 94 1013.5
20260510090025 11 245 0.0 0.0 0.00 0.00 0.00 94 1013.4
20260510083013 12 245 0.0 0.0 0.00 0.00 0.00 94 1013.1
20260510081527 12 245 0.0 0.0 0.00 0.00 0.00 95 1013.0
20260510080024 12 245 0.0 0.0 0.00 0.00 0.00 94 1012.9
20260510074525 12 245 0.0 0.0 0.00 0.00 0.00 95 1012.9
20260510073020 12 245 0.0 0.0 0.00 0.00 0.00 95 1012.8
20260510071521 12 245 0.0 0.0 0.00 0.00 0.00 95 1012.6
20260510070014 12 245 0.0 0.0 0.00 0.00 0.00 94 1012.4
20260510064509 13 245 0.0 0.0 0.00 0.00 0.00 94 1012.4
20260510063027 13 245 0.0 0.0 0.00 0.00 0.00 94 1012.5
20260510061526 13 245 0.0 0.0 0.00 0.00 0.00 94 1012.4
20260510060023 13 245 0.0 0.0 0.00 0.00 0.00 94 1012.5
20260510054523 13 251 0.0 0.0 0.00 0.00 0.00 94 1012.6
20260510053018 13 251 0.0 0.0 0.00 0.00 0.00 94 1012.7
20260510051516 13 144 0.0 0.0 0.00 0.00 0.00 93 1012.8
20260510050012 14 144 0.0 0.0 0.00 0.00 0.00 94 1012.8
20260510043010 14 144 0.0 0.0 0.00 0.00 0.00 93 1012.8
20260510041525 14 144 0.0 0.0 0.00 0.00 0.00 93 1012.8
20260510040024 15 144 0.0 0.0 0.00 0.00 0.00 93 1013.0
20260510034519 15 144 0.0 0.0 0.00 0.00 0.00 92 1013.0
20260510033016 15 144 0.0 0.0 0.00 0.00 0.00 91 1013.0
20260510031519 15 144 0.0 0.0 0.00 0.00 0.00 1012.8
20260510030012 16 144 0.0 0.0 0.00 0.00 0.00 90 1012.8
20260510024526 16 144 0.0 0.0 0.00 0.00 0.00 90 1012.7
20260510023022 16 144 0.0 0.0 0.00 0.00 0.00 89 1012.5
20260510021522 16 144 0.0 0.0 0.00 0.00 0.00 88 1012.4
20260510020018 17 144 0.0 0.0 0.00 0.00 0.00 86 1012.3
20260510014519 17 163 0.0 0.0 0.00 0.00 0.00 86 1012.2
20260510013015 17 163 0.0 3.2 0.00 0.00 0.00 85 1012.0
20260510011512 18 343 0.0 1.6 0.00 0.00 0.00 82 1011.8
20260510010026 18 262 0.0 6.4 0.00 0.00 0.00 81 1011.6
20260510004524 18 157 1.6 4.8 0.00 0.00 0.00 80 1011.2
20260510003027 19 134 0.0 4.8 0.00 0.00 0.00 80 1011.0
20260510001529 19 184 0.0 6.4 0.00 0.00 0.00 79 1010.7
20260510000015 20 165 0.0 3.2 0.00 0.00 0.00 78 1010.5
20260509234516 20 151 0.0 1.6 0.00 0.00 0.00 76 1010.5
20260509233022 21 161 0.0 4.8 0.00 0.00 0.00 74 1010.4
20260509230026 21 133 1.6 8.0 0.00 0.00 0.00 72 1010.2
20260509224532 21 150 1.6 8.0 0.00 0.00 0.00 72 1010.2
20260509223025 21 113 4.8 17.7 0.00 0.00 0.00 71 1010.1
20260509221530 21 162 1.6 9.7 0.00 0.00 0.00 70 1009.8
20260509220016 21 170 4.8 11.3 0.00 0.00 0.00 69 1009.6
20260509214513 21 192 1.6 9.7 0.00 0.00 0.00 69 1009.5
20260509213025 22 148 1.6 16.1 0.00 0.00 0.00 70 1009.5
20260509211534 22 113 3.2 12.9 0.00 0.00 0.00 68 1009.5
20260509210023 22 61 1.6 12.9 0.00 0.00 0.00 67 1009.4
20260509204528 22 119 3.2 16.1 0.00 0.00 0.00 67 1009.2
20260509203024 22 240 6.4 16.1 0.00 0.00 0.00 66 1009.3
20260509200015 22 155 8.0 17.7 0.00 0.00 0.00 66 1009.4
20260509193010 22 190 6.4 16.1 0.00 0.00 0.00 65 1009.7
20260509191509 22 165 6.4 20.9 0.00 0.00 0.00 62 1009.8
20260509190007 22 188 3.2 12.9 0.00 0.00 0.00 72 1009.8
20260509184529 21 51 4.8 17.7 0.00 0.00 0.00 69 1010.1
20260509183020 21 148 1.6 16.1 0.00 0.00 0.00 67 1010.3